Weather History for Tri-Cities, TN

Change the Weather History Date:

Thursday, November 17, 2011

  Actual Average Record
Temperature  
Mean Temperature 39 °F 46 °F  
Max Temperature 50 °F 58 °F 77 °F (1958)
Min Temperature 27 °F 34 °F 19 °F (1984)
Degree Days  
Heating Degree Days 26 19  
Month to date heating degree days 274 274  
Since 1 July heating degree days 588 609  
Cooling Degree Days 0 0  
Month to date cooling degree days 0 0  
Year to date cooling degree days 1331 980  
Moisture  
Dew Point 31 °F    
Average Humidity 66    
Maximum Humidity 92    
Minimum Humidity 40    
Precipitation  
Precipitation 0.07 in 0.11 in 1.10 in (1987)
Month to date precipitation 3.42 1.63  
Year to date precipitation 42.40 36.17  
Snow  
Snow T in 0.00 in - ()
Month to date snowfall T 0.1  
Since 1 July snowfall T 0.2  
Since 1 September snowfall T 0.2  
Snow Depth 0.00 in    
Sea Level Pressure  
Sea Level Pressure 30.12 in    
Wind  
Wind Speed 7 mph (NW)    
Max Wind Speed 17 mph    
Max Gust Speed 22 mph    
Visibility 8 miles    
Events Rain , Snow    
T = Trace of Precipitation, MM = Missing Value Source: NWS Daily Summary

Daily Weather History Graph

Daily Weather History Graph

Search for Another Location

Airport:

Trip Planner

Search our weather history database for the weather conditions in past years. The results will help you decide how hot, cold, wet, or windy it might be!

Date:

Astronomy

Nov. 17, 2011 Rise Set
Actual Time 7:08 AM EST 5:19 PM EST
Civil Twilight 6:41 AM EST 5:47 PM EST
Nautical Twilight 6:10 AM EST 6:18 PM EST
Astronomical Twilight 5:39 AM EST 6:49 PM EST
Moon 11:35 PM EST (11/17) 12:19 PM EST (11/17)
Length of Visible Light 11h 06m
Length of Day
10h 11m
Waning Gibbous, 60% of the Moon is Illuminated
Nov 17
Waning Gibbous
Nov 18
Last Quarter
Nov 25
New
Dec 2
First Quarter
Dec 10
Full

Hourly Weather History & Observations

Time (EST) Temp. Windchill Dew Point Humidity Pressure Visibility Wind Dir Wind Speed Gust Speed Precip Events Conditions
12:53 AM 50.0 °F - 44.1 °F 80% 29.91 in 10.0 mi North 5.8 mph - N/A   Overcast
1:53 AM 50.0 °F - 43.0 °F 77% 29.90 in 10.0 mi North 5.8 mph - N/A   Overcast
2:53 AM 50.0 °F - 44.1 °F 80% 29.91 in 10.0 mi North 5.8 mph - N/A   Overcast
3:22 AM 48.2 °F - 44.6 °F 87% 29.93 in 9.0 mi North 13.8 mph 18.4 mph N/A   Overcast
3:53 AM 45.0 °F 39.7 °F 42.1 °F 90% 29.92 in 7.0 mi North 10.4 mph 19.6 mph 0.00 in   Overcast
4:45 AM 42.8 °F 35.8 °F 39.2 °F 87% 29.98 in 6.0 mi North 13.8 mph 20.7 mph 0.00 in Rain Light Rain
4:53 AM 42.1 °F 36.6 °F 39.0 °F 89% 29.96 in 7.0 mi North 9.2 mph 18.4 mph 0.00 in Rain Light Rain
5:16 AM 41.0 °F 35.2 °F 37.4 °F 87% 29.99 in 5.0 mi NNW 9.2 mph 16.1 mph 0.01 in Rain Light Rain
5:42 AM 39.2 °F 33.0 °F 37.4 °F 93% 30.00 in 7.0 mi NNW 9.2 mph - 0.03 in Rain Light Rain
5:53 AM 39.9 °F 35.1 °F 37.0 °F 89% 29.99 in 7.0 mi NNW 6.9 mph - 0.04 in Rain Light Rain
6:53 AM 39.0 °F 32.8 °F 35.1 °F 86% 30.01 in 6.0 mi North 9.2 mph - 0.01 in Rain Light Rain
7:03 AM 39.2 °F 33.6 °F 33.8 °F 81% 30.04 in 6.0 mi North 8.1 mph 18.4 mph 0.00 in Rain Light Rain
7:53 AM 39.0 °F 36.8 °F 33.1 °F 79% 30.06 in 10.0 mi Variable 3.5 mph - 0.00 in Rain Light Rain
8:53 AM 39.0 °F 31.0 °F 32.0 °F 76% 30.10 in 10.0 mi NNW 13.8 mph - 0.00 in Rain Light Rain
9:37 AM 35.6 °F 29.9 °F 33.8 °F 93% 30.14 in 2.0 mi NNW 6.9 mph - 0.00 in Snow Light Snow
9:53 AM 36.0 °F 31.1 °F 33.1 °F 89% 30.13 in 2.0 mi NNW 5.8 mph - 0.01 in Snow Light Snow
10:30 AM 35.6 °F 29.9 °F 33.8 °F 93% 30.17 in 3.0 mi West 6.9 mph - 0.01 in Rain Light Rain
10:36 AM 35.6 °F 29.9 °F 33.8 °F 93% 30.17 in 3.0 mi West 6.9 mph - 0.01 in Rain Light Rain
10:53 AM 37.9 °F 33.5 °F 35.1 °F 89% 30.14 in 10.0 mi WNW 5.8 mph - 0.01 in   Overcast
11:28 AM 39.2 °F 34.2 °F 33.8 °F 81% 30.16 in 10.0 mi Variable 6.9 mph - N/A   Overcast
11:53 AM 39.0 °F 31.8 °F 33.1 °F 79% 30.14 in 10.0 mi NNW 11.5 mph - N/A   Overcast
12:53 PM 39.9 °F 32.9 °F 30.9 °F 70% 30.14 in 10.0 mi NNW 11.5 mph - N/A   Overcast
1:00 PM 39.2 °F 32.5 °F 30.2 °F 70% 30.16 in 10.0 mi NNW 10.4 mph - N/A   Overcast
1:53 PM 43.0 °F 37.2 °F 28.0 °F 56% 30.14 in 10.0 mi NW 10.4 mph - N/A   Scattered Clouds
2:53 PM 42.1 °F 36.1 °F 21.9 °F 45% 30.15 in 10.0 mi WNW 10.4 mph - N/A   Scattered Clouds
3:53 PM 39.9 °F 32.9 °F 21.9 °F 49% 30.19 in 10.0 mi WNW 11.5 mph 21.9 mph N/A   Scattered Clouds
4:53 PM 41.0 °F 35.2 °F 21.0 °F 45% 30.22 in 10.0 mi WNW 9.2 mph 16.1 mph N/A   Mostly Cloudy
5:53 PM 39.0 °F 32.8 °F 18.0 °F 43% 30.25 in 10.0 mi WNW 9.2 mph - N/A   Mostly Cloudy
6:53 PM 37.0 °F 32.4 °F 19.0 °F 48% 30.28 in 10.0 mi West 5.8 mph - N/A   Clear
7:53 PM 37.0 °F 31.6 °F 15.1 °F 41% 30.30 in 10.0 mi WNW 6.9 mph - N/A   Clear
8:53 PM 36.0 °F 31.1 °F 15.1 °F 43% 30.31 in 10.0 mi West 5.8 mph - N/A   Clear
9:53 PM 35.1 °F - 17.1 °F 48% 30.34 in 10.0 mi Calm Calm - N/A   Clear
10:53 PM 32.0 °F - 18.0 °F 56% 30.35 in 10.0 mi Calm Calm - N/A   Clear
11:53 PM 30.0 °F 26.5 °F 19.0 °F 64% 30.35 in 10.0 mi NW 3.5 mph - N/A   Clear